owner,sensor,date,latitude,longitude,vertical_datum,direction_of_sea_water_velocity,sea_water_speed,upward_sea_water_velocity,qcFlag 
TABS,ioos:station:wmo:42048:1,2014-05-01T00:00:00Z,27.9396,-96.8429,2.0,217.1368648,26.15428454,-99999.0,'11111222,11111222,99999999' 
TABS,ioos:station:wmo:42048:1,2014-05-01T00:30:00Z,27.9396,-96.8429,2.0,217.9717216,26.41088601,-99999.0,'11111222,11111222,99999999' 
TABS,ioos:station:wmo:42048:1,2014-05-01T01:00:00Z,27.9396,-96.8429,2.0,225.1461369,24.8973111,-99999.0,'11111222,11111222,99999999' 
TABS,ioos:station:wmo:42048:1,2014-05-01T01:30:00Z,27.9396,-96.8429,2.0,227.8193236,22.71148168,-99999.0,'11111222,11111222,99999999' 
TABS,ioos:station:wmo:42048:1,2014-05-01T02:00:00Z,27.9396,-96.8429,2.0,230.7455893,21.68276966,-99999.0,'11111222,11111222,99999999' 
TABS,ioos:station:wmo:42048:1,2014-05-01T02:30:00Z,27.9396,-96.8429,2.0,234.8512069,21.9038855,-99999.0,'11111222,11111222,99999999' 
TABS,ioos:station:wmo:42048:1,2014-05-01T03:00:00Z,27.9396,-96.8429,2.0,219.4953596,21.3043681,-99999.0,'11111222,11111222,99999999' 
TABS,ioos:station:wmo:42048:1,2014-05-01T03:30:00Z,27.9396,-96.8429,2.0,218.8643132,23.15603161,-99999.0,'11111222,11111222,99999999' 
TABS,ioos:station:wmo:42048:1,2014-05-01T04:00:00Z,27.9396,-96.8429,2.0,236.990689,17.73224464,-99999.0,'11111222,11111222,99999999' 
TABS,ioos:station:wmo:42048:1,2014-05-01T04:30:00Z,27.9396,-96.8429,2.0,241.8005166,17.56474879,-99999.0,'11111222,11111222,99999999' 
TABS,ioos:station:wmo:42048:1,2014-05-01T05:00:00Z,27.9396,-96.8429,2.0,237.8320054,15.34565085,-99999.0,'11111222,11111222,99999999' 
TABS,ioos:station:wmo:42048:1,2014-05-01T05:30:00Z,27.9396,-96.8429,2.0,245.8073616,16.20302441,-99999.0,'11111222,11111222,99999999' 
TABS,ioos:station:wmo:42048:1,2014-05-01T06:00:00Z,27.9396,-96.8429,2.0,230.3370718,16.4195006,-99999.0,'11111222,11111222,99999999' 
TABS,ioos:station:wmo:42048:1,2014-05-01T06:30:00Z,27.9396,-96.8429,2.0,242.0881454,18.84183908,-99999.0,'11111222,11111222,99999999' 
TABS,ioos:station:wmo:42048:1,2014-05-01T07:00:00Z,27.9396,-96.8429,2.0,225.6157428,16.44118305,-99999.0,'11111222,11111222,99999999' 
TABS,ioos:station:wmo:42048:1,2014-05-01T07:30:00Z,27.9396,-96.8429,2.0,229.2979,11.13288821,-99999.0,'11111222,11111222,99999999' 
TABS,ioos:station:wmo:42048:1,2014-05-01T08:00:00Z,27.9396,-96.8429,2.0,241.5877014,11.51726096,-99999.0,'11111222,11111222,99999999' 
TABS,ioos:station:wmo:42048:1,2014-05-01T08:30:00Z,27.9396,-96.8429,2.0,230.013636,16.66664333,-99999.0,'11111222,11111222,99999999' 
TABS,ioos:station:wmo:42048:1,2014-05-01T09:00:00Z,27.9396,-96.8429,2.0,234.5234565,18.41944896,-99999.0,'11111222,11111222,99999999' 
TABS,ioos:station:wmo:42048:1,2014-05-01T09:30:00Z,27.9396,-96.8429,2.0,221.9145744,15.89758787,-99999.0,'11111222,11111222,99999999' 
TABS,ioos:station:wmo:42048:1,2014-05-01T10:00:00Z,27.9396,-96.8429,2.0,212.4651666,15.31322304,-99999.0,'11111222,11111222,99999999' 
TABS,ioos:station:wmo:42048:1,2014-05-01T10:30:00Z,27.9396,-96.8429,2.0,214.3446862,14.07366335,-99999.0,'11111222,11111222,99999999' 
TABS,ioos:station:wmo:42048:1,2014-05-01T11:00:00Z,27.9396,-96.8429,2.0,216.7564718,13.16802567,-99999.0,'11111222,11111222,99999999' 
TABS,ioos:station:wmo:42048:1,2014-05-01T11:30:00Z,27.9396,-96.8429,2.0,227.8909471,15.42041504,-99999.0,'11111222,11111222,99999999' 
TABS,ioos:station:wmo:42048:1,2014-05-01T12:00:00Z,27.9396,-96.8429,2.0,220.4533121,19.3578537,-99999.0,'11111222,11111222,99999999' 
TABS,ioos:station:wmo:42048:1,2014-05-01T12:30:00Z,27.9396,-96.8429,2.0,232.6223316,12.42048711,-99999.0,'11111222,11111222,99999999' 
TABS,ioos:station:wmo:42048:1,2014-05-01T13:00:00Z,27.9396,-96.8429,2.0,224.9996843,20.59094947,-99999.0,'11111222,11111222,99999999' 
TABS,ioos:station:wmo:42048:1,2014-05-01T13:30:00Z,27.9396,-96.8429,2.0,231.3621206,20.09956467,-99999.0,'11111222,11111222,99999999' 
TABS,ioos:station:wmo:42048:1,2014-05-01T14:00:00Z,27.9396,-96.8429,2.0,211.85927,24.57189044,-99999.0,'11111222,11111222,99999999' 
TABS,ioos:station:wmo:42048:1,2014-05-01T14:30:00Z,27.9396,-96.8429,2.0,224.0994497,22.50291537,-99999.0,'11111222,11111222,99999999' 
TABS,ioos:station:wmo:42048:1,2014-05-01T15:00:00Z,27.9396,-96.8429,2.0,215.8669007,24.45774519,-99999.0,'11111222,11111222,99999999' 
TABS,ioos:station:wmo:42048:1,2014-05-01T15:30:00Z,27.9396,-96.8429,2.0,225.7631479,24.94187042,-99999.0,'11111222,11111222,99999999' 
TABS,ioos:station:wmo:42048:1,2014-05-01T16:00:00Z,27.9396,-96.8429,2.0,211.2999007,26.87086154,-99999.0,'11111222,11111222,99999999' 
TABS,ioos:station:wmo:42048:1,2014-05-01T16:30:00Z,27.9396,-96.8429,2.0,221.6874073,29.86150699,-99999.0,'11111222,11111222,99999999' 
TABS,ioos:station:wmo:42048:1,2014-05-01T17:00:00Z,27.9396,-96.8429,2.0,221.189753,26.07207894,-99999.0,'11111222,11111222,99999999' 
TABS,ioos:station:wmo:42048:1,2014-05-01T17:30:00Z,27.9396,-96.8429,2.0,217.3271176,24.04476658,-99999.0,'11111222,11111222,99999999' 
TABS,ioos:station:wmo:42048:1,2014-05-01T18:00:00Z,27.9396,-96.8429,2.0,226.4321387,28.00310876,-99999.0,'11111222,11111222,99999999' 
TABS,ioos:station:wmo:42048:1,2014-05-01T18:30:00Z,27.9396,-96.8429,2.0,215.8214925,26.02235385,-99999.0,'11111222,11111222,99999999' 
TABS,ioos:station:wmo:42048:1,2014-05-01T19:00:00Z,27.9396,-96.8429,2.0,213.0711268,30.31058561,-99999.0,'11111222,11111222,99999999' 
TABS,ioos:station:wmo:42048:1,2014-05-01T19:30:00Z,27.9396,-96.8429,2.0,220.6336736,32.32372813,-99999.0,'11111222,11111222,99999999' 
TABS,ioos:station:wmo:42048:1,2014-05-01T20:00:00Z,27.9396,-96.8429,2.0,217.1411423,31.65035545,-99999.0,'11111222,11111222,99999999' 
TABS,ioos:station:wmo:42048:1,2014-05-01T20:30:00Z,27.9396,-96.8429,2.0,223.2172001,27.27923753,-99999.0,'11111222,11111222,99999999' 
TABS,ioos:station:wmo:42048:1,2014-05-01T21:00:00Z,27.9396,-96.8429,2.0,227.493145,26.98045589,-99999.0,'11111222,11111222,99999999' 
TABS,ioos:station:wmo:42048:1,2014-05-01T21:30:00Z,27.9396,-96.8429,2.0,224.0842344,29.65277221,-99999.0,'11111222,11111222,99999999' 
TABS,ioos:station:wmo:42048:1,2014-05-01T22:00:00Z,27.9396,-96.8429,2.0,229.6158615,30.57548364,-99999.0,'11111222,11111222,99999999' 
TABS,ioos:station:wmo:42048:1,2014-05-01T22:30:00Z,27.9396,-96.8429,2.0,208.8473827,32.00116404,-99999.0,'11111222,11111222,99999999' 
TABS,ioos:station:wmo:42048:1,2014-05-01T23:00:00Z,27.9396,-96.8429,2.0,232.0609543,37.84858518,-99999.0,'11111222,11111222,99999999' 
TABS,ioos:station:wmo:42048:1,2014-05-01T23:30:00Z,27.9396,-96.8429,2.0,234.6383975,37.75508707,-99999.0,'11111222,11111222,99999999' 
TABS,ioos:station:wmo:42048:1,2014-05-02T00:00:00Z,27.9396,-96.8429,2.0,236.499956,34.22519101,-99999.0,'11111222,11111222,99999999' 
TABS,ioos:station:wmo:42048:1,2014-05-02T00:30:00Z,27.9396,-96.8429,2.0,238.6876495,34.42383186,-99999.0,'11111222,11111222,99999999' 
TABS,ioos:station:wmo:42048:1,2014-05-02T01:00:00Z,27.9396,-96.8429,2.0,234.2862255,34.48502429,-99999.0,'11111222,11111222,99999999' 
TABS,ioos:station:wmo:42048:1,2014-05-02T01:30:00Z,27.9396,-96.8429,2.0,240.4731394,33.84560385,-99999.0,'11111222,11111222,99999999' 
TABS,ioos:station:wmo:42048:1,2014-05-02T02:00:00Z,27.9396,-96.8429,2.0,237.4671694,32.26240072,-99999.0,'11111222,11111222,99999999' 
TABS,ioos:station:wmo:42048:1,2014-05-02T02:30:00Z,27.9396,-96.8429,2.0,242.1984684,32.54683548,-99999.0,'11111222,11111222,99999999' 
TABS,ioos:station:wmo:42048:1,2014-05-02T03:00:00Z,27.9396,-96.8429,2.0,242.1950623,32.45741364,-99999.0,'11111222,11111222,99999999' 
TABS,ioos:station:wmo:42048:1,2014-05-02T03:30:00Z,27.9396,-96.8429,2.0,243.8350327,32.6339731,-99999.0,'11111222,11111222,99999999' 
TABS,ioos:station:wmo:42048:1,2014-05-02T04:00:00Z,27.9396,-96.8429,2.0,243.0545652,31.69025244,-99999.0,'11111222,11111222,99999999' 
TABS,ioos:station:wmo:42048:1,2014-05-02T04:30:00Z,27.9396,-96.8429,2.0,243.2964869,29.6861247,-99999.0,'11111222,11111222,99999999' 
TABS,ioos:station:wmo:42048:1,2014-05-02T05:00:00Z,27.9396,-96.8429,2.0,245.9177104,31.17322569,-99999.0,'11111222,11111222,99999999' 
TABS,ioos:station:wmo:42048:1,2014-05-02T05:30:00Z,27.9396,-96.8429,2.0,245.3422603,28.88364589,-99999.0,'11111222,11111222,99999999' 
TABS,ioos:station:wmo:42048:1,2014-05-02T06:00:00Z,27.9396,-96.8429,2.0,250.0393061,25.77853564,-99999.0,'11111222,11111222,99999999' 
TABS,ioos:station:wmo:42048:1,2014-05-02T06:30:00Z,27.9396,-96.8429,2.0,245.8486599,26.54332308,-99999.0,'11111222,11111222,99999999' 
TABS,ioos:station:wmo:42048:1,2014-05-02T07:00:00Z,27.9396,-96.8429,2.0,250.1124188,22.45938557,-99999.0,'11111222,11111222,99999999' 
TABS,ioos:station:wmo:42048:1,2014-05-02T07:30:00Z,27.9396,-96.8429,2.0,253.7600871,23.27880152,-99999.0,'11111222,11111222,99999999' 
TABS,ioos:station:wmo:42048:1,2014-05-02T08:00:00Z,27.9396,-96.8429,2.0,248.203467,20.27978797,-99999.0,'11111222,11111222,99999999' 
TABS,ioos:station:wmo:42048:1,2014-05-02T08:30:00Z,27.9396,-96.8429,2.0,249.1847701,21.24669621,-99999.0,'11111222,11111222,99999999' 
TABS,ioos:station:wmo:42048:1,2014-05-02T09:00:00Z,27.9396,-96.8429,2.0,249.2704738,20.14404378,-99999.0,'11111222,11111222,99999999' 
TABS,ioos:station:wmo:42048:1,2014-05-02T09:30:00Z,27.9396,-96.8429,2.0,252.1557287,18.69954278,-99999.0,'11111222,11111222,99999999' 
TABS,ioos:station:wmo:42048:1,2014-05-02T10:00:00Z,27.9396,-96.8429,2.0,251.7189168,15.27069416,-99999.0,'11111222,11111222,99999999' 
TABS,ioos:station:wmo:42048:1,2014-05-02T10:30:00Z,27.9396,-96.8429,2.0,249.5167784,15.57467817,-99999.0,'11111222,11111222,99999999' 
TABS,ioos:station:wmo:42048:1,2014-05-02T11:00:00Z,27.9396,-96.8429,2.0,246.5025542,15.37487886,-99999.0,'11111222,11111222,99999999' 
TABS,ioos:station:wmo:42048:1,2014-05-02T11:30:00Z,27.9396,-96.8429,2.0,243.0842813,13.16621434,-99999.0,'11111222,11111222,99999999' 
TABS,ioos:station:wmo:42048:1,2014-05-02T12:00:00Z,27.9396,-96.8429,2.0,237.3579405,10.3080551,-99999.0,'11111222,11111222,99999999' 
TABS,ioos:station:wmo:42048:1,2014-05-02T12:30:00Z,27.9396,-96.8429,2.0,230.591229,10.15997047,-99999.0,'11111222,11111222,99999999' 
TABS,ioos:station:wmo:42048:1,2014-05-02T13:00:00Z,27.9396,-96.8429,2.0,241.4444224,11.58982312,-99999.0,'11111222,11111222,99999999' 
TABS,ioos:station:wmo:42048:1,2014-05-02T13:30:00Z,27.9396,-96.8429,2.0,239.131197,10.3105092,-99999.0,'11111222,11111222,99999999' 
TABS,ioos:station:wmo:42048:1,2014-05-02T14:00:00Z,27.9396,-96.8429,2.0,242.2332847,6.825979783,-99999.0,'11133222,11111222,99999999' 
TABS,ioos:station:wmo:42048:1,2014-05-02T14:30:00Z,27.9396,-96.8429,2.0,238.9510754,4.633896848,-99999.0,'11133222,11111222,99999999' 
TABS,ioos:station:wmo:42048:1,2014-05-02T15:00:00Z,27.9396,-96.8429,2.0,224.5381644,6.144957282,-99999.0,'11133222,11111222,99999999' 
TABS,ioos:station:wmo:42048:1,2014-05-02T15:30:00Z,27.9396,-96.8429,2.0,222.81914,7.062039366,-99999.0,'11133222,11111222,99999999' 
TABS,ioos:station:wmo:42048:1,2014-05-02T16:00:00Z,27.9396,-96.8429,2.0,212.4379395,2.665970743,-99999.0,'11133222,11111222,99999999' 
TABS,ioos:station:wmo:42048:1,2014-05-02T16:30:00Z,27.9396,-96.8429,2.0,221.6332315,3.612478374,-99999.0,'11133222,11111222,99999999' 
TABS,ioos:station:wmo:42048:1,2014-05-02T17:00:00Z,27.9396,-96.8429,2.0,216.1291492,2.476206777,-99999.0,'11133222,11111222,99999999' 
TABS,ioos:station:wmo:42048:1,2014-05-02T17:30:00Z,27.9396,-96.8429,2.0,199.0497364,3.829738894,-99999.0,'11133222,11111222,99999999' 
TABS,ioos:station:wmo:42048:1,2014-05-02T18:00:00Z,27.9396,-96.8429,2.0,194.5533283,1.074476617,-99999.0,'11133222,11111222,99999999' 
TABS,ioos:station:wmo:42048:1,2014-05-02T18:30:00Z,27.9396,-96.8429,2.0,196.8760147,2.790161286,-99999.0,'11133222,11111222,99999999' 
TABS,ioos:station:wmo:42048:1,2014-05-02T19:00:00Z,27.9396,-96.8429,2.0,207.2809369,1.788994131,-99999.0,'11133222,11111222,99999999' 
TABS,ioos:station:wmo:42048:1,2014-05-02T19:30:00Z,27.9396,-96.8429,2.0,163.0445161,0.857263087,-99999.0,'11133222,11111222,99999999' 
TABS,ioos:station:wmo:42048:1,2014-05-02T20:00:00Z,27.9396,-96.8429,2.0,222.0314572,1.911753122,-99999.0,'11133222,11111222,99999999' 
TABS,ioos:station:wmo:42048:1,2014-05-02T20:30:00Z,27.9396,-96.8429,2.0,92.86239853,0.600749532,-99999.0,'11133222,11111222,99999999' 
TABS,ioos:station:wmo:42048:1,2014-05-02T21:00:00Z,27.9396,-96.8429,2.0,7.431601052,1.391689621,-99999.0,'11133222,11111222,99999999' 
TABS,ioos:station:wmo:42048:1,2014-05-02T21:30:00Z,27.9396,-96.8429,2.0,43.59608129,2.88586209,-99999.0,'11133222,11111222,99999999' 
TABS,ioos:station:wmo:42048:1,2014-05-02T22:00:00Z,27.9396,-96.8429,2.0,35.49158657,4.323251091,-99999.0,'11133222,11111222,99999999' 
TABS,ioos:station:wmo:42048:1,2014-05-02T22:30:00Z,27.9396,-96.8429,2.0,21.96272029,8.58287248,-99999.0,'11133222,11111222,99999999' 
TABS,ioos:station:wmo:42048:1,2014-05-02T23:00:00Z,27.9396,-96.8429,2.0,29.72331656,9.822311337,-99999.0,'11133222,11111222,99999999' 
TABS,ioos:station:wmo:42048:1,2014-05-02T23:30:00Z,27.9396,-96.8429,2.0,26.58604946,12.28943042,-99999.0,'11111222,11111222,99999999' 
TABS,ioos:station:wmo:42048:1,2014-05-03T00:00:00Z,27.9396,-96.8429,2.0,24.81477381,13.17658909,-99999.0,'11111222,11111222,99999999' 
TABS,ioos:station:wmo:42048:1,2014-05-03T00:30:00Z,27.9396,-96.8429,2.0,36.38799853,13.78848795,-99999.0,'11111222,11111222,99999999' 
TABS,ioos:station:wmo:42048:1,2014-05-03T01:00:00Z,27.9396,-96.8429,2.0,28.03443466,15.00000333,-99999.0,'11111222,11111222,99999999' 
TABS,ioos:station:wmo:42048:1,2014-05-03T01:30:00Z,27.9396,-96.8429,2.0,30.88688435,17.86330876,-99999.0,'11111222,11111222,99999999' 
TABS,ioos:station:wmo:42048:1,2014-05-03T02:00:00Z,27.9396,-96.8429,2.0,31.97192509,19.88662365,-99999.0,'11111222,11111222,99999999' 
TABS,ioos:station:wmo:42048:1,2014-05-03T02:30:00Z,27.9396,-96.8429,2.0,30.35276421,19.29468839,-99999.0,'11111222,11111222,99999999' 
TABS,ioos:station:wmo:42048:1,2014-05-03T03:00:00Z,27.9396,-96.8429,2.0,32.83035613,18.48191819,-99999.0,'11111222,11111222,99999999' 
TABS,ioos:station:wmo:42048:1,2014-05-03T03:30:00Z,27.9396,-96.8429,2.0,47.70719859,20.06179454,-99999.0,'11111222,11111222,99999999' 
TABS,ioos:station:wmo:42048:1,2014-05-03T04:00:00Z,27.9396,-96.8429,2.0,42.46460367,18.38155869,-99999.0,'11111222,11111222,99999999' 
TABS,ioos:station:wmo:42048:1,2014-05-03T04:30:00Z,27.9396,-96.8429,2.0,44.36239444,24.14212087,-99999.0,'11111222,11111222,99999999' 
TABS,ioos:station:wmo:42048:1,2014-05-03T05:00:00Z,27.9396,-96.8429,2.0,32.37683161,23.71689061,-99999.0,'11111222,11111222,99999999' 
TABS,ioos:station:wmo:42048:1,2014-05-03T05:30:00Z,27.9396,-96.8429,2.0,32.40662778,23.77209499,-99999.0,'11111222,11111222,99999999' 
TABS,ioos:station:wmo:42048:1,2014-05-03T06:00:00Z,27.9396,-96.8429,2.0,33.75636892,21.61390756,-99999.0,'11111222,11111222,99999999' 
TABS,ioos:station:wmo:42048:1,2014-05-03T06:30:00Z,27.9396,-96.8429,2.0,39.37650423,24.10105807,-99999.0,'11111222,11111222,99999999' 
TABS,ioos:station:wmo:42048:1,2014-05-03T07:00:00Z,27.9396,-96.8429,2.0,33.10680412,22.33616126,-99999.0,'11111222,11111222,99999999' 
TABS,ioos:station:wmo:42048:1,2014-05-03T07:30:00Z,27.9396,-96.8429,2.0,34.65481114,20.59338972,-99999.0,'11111222,11111222,99999999' 
TABS,ioos:station:wmo:42048:1,2014-05-03T08:00:00Z,27.9396,-96.8429,2.0,41.0902959,23.64411132,-99999.0,'11111222,11111222,99999999' 
TABS,ioos:station:wmo:42048:1,2014-05-03T08:30:00Z,27.9396,-96.8429,2.0,33.23583692,24.83193508,-99999.0,'11111222,11111222,99999999' 
TABS,ioos:station:wmo:42048:1,2014-05-03T09:00:00Z,27.9396,-96.8429,2.0,38.05242139,22.38876727,-99999.0,'11111222,11111222,99999999' 
TABS,ioos:station:wmo:42048:1,2014-05-03T09:30:00Z,27.9396,-96.8429,2.0,42.61338464,21.56425051,-99999.0,'11111222,11111222,99999999' 
TABS,ioos:station:wmo:42048:1,2014-05-03T10:00:00Z,27.9396,-96.8429,2.0,39.16062657,21.26699321,-99999.0,'11111222,11111222,99999999' 
TABS,ioos:station:wmo:42048:1,2014-05-03T10:30:00Z,27.9396,-96.8429,2.0,33.25664225,21.9917189,-99999.0,'11111222,11111222,99999999' 
TABS,ioos:station:wmo:42048:1,2014-05-03T11:00:00Z,27.9396,-96.8429,2.0,39.52975378,23.66148981,-99999.0,'11111222,11111222,99999999' 
TABS,ioos:station:wmo:42048:1,2014-05-03T11:30:00Z,27.9396,-96.8429,2.0,40.50482028,24.44918199,-99999.0,'11111222,11111222,99999999' 
TABS,ioos:station:wmo:42048:1,2014-05-03T12:00:00Z,27.9396,-96.8429,2.0,28.84157847,23.75684533,-99999.0,'11111222,11111222,99999999' 
TABS,ioos:station:wmo:42048:1,2014-05-03T12:30:00Z,27.9396,-96.8429,2.0,40.0279593,21.78307829,-99999.0,'11111222,11111222,99999999' 
TABS,ioos:station:wmo:42048:1,2014-05-03T13:00:00Z,27.9396,-96.8429,2.0,38.8127469,23.42146238,-99999.0,'11111222,11111222,99999999' 
TABS,ioos:station:wmo:42048:1,2014-05-03T13:30:00Z,27.9396,-96.8429,2.0,31.57830155,23.03015415,-99999.0,'11111222,11111222,99999999' 
TABS,ioos:station:wmo:42048:1,2014-05-03T14:00:00Z,27.9396,-96.8429,2.0,37.44491057,21.72709369,-99999.0,'11111222,11111222,99999999' 
TABS,ioos:station:wmo:42048:1,2014-05-03T14:30:00Z,27.9396,-96.8429,2.0,34.4369686,25.11063719,-99999.0,'11111222,11111222,99999999' 
TABS,ioos:station:wmo:42048:1,2014-05-03T15:00:00Z,27.9396,-96.8429,2.0,39.24529942,24.61114585,-99999.0,'11111222,11111222,99999999' 
TABS,ioos:station:wmo:42048:1,2014-05-03T15:30:00Z,27.9396,-96.8429,2.0,30.91048039,22.07530747,-99999.0,'11111222,11111222,99999999' 
TABS,ioos:station:wmo:42048:1,2014-05-03T16:00:00Z,27.9396,-96.8429,2.0,39.7138364,25.55747444,-99999.0,'11111222,11111222,99999999' 
TABS,ioos:station:wmo:42048:1,2014-05-03T16:30:00Z,27.9396,-96.8429,2.0,37.58499892,27.88817133,-99999.0,'11111222,11111222,99999999' 
TABS,ioos:station:wmo:42048:1,2014-05-03T17:00:00Z,27.9396,-96.8429,2.0,46.08497182,30.99804671,-99999.0,'11111222,11111222,99999999' 
TABS,ioos:station:wmo:42048:1,2014-05-03T17:30:00Z,27.9396,-96.8429,2.0,39.88537974,30.37805952,-99999.0,'11111222,11111222,99999999' 
TABS,ioos:station:wmo:42048:1,2014-05-03T18:00:00Z,27.9396,-96.8429,2.0,40.20982329,27.77317051,-99999.0,'11111222,11111222,99999999' 
TABS,ioos:station:wmo:42048:1,2014-05-03T18:30:00Z,27.9396,-96.8429,2.0,38.92616282,34.28207257,-99999.0,'11111222,11111222,99999999' 
TABS,ioos:station:wmo:42048:1,2014-05-03T19:00:00Z,27.9396,-96.8429,2.0,40.40103499,36.59747669,-99999.0,'11111222,11111222,99999999' 
TABS,ioos:station:wmo:42048:1,2014-05-03T19:30:00Z,27.9396,-96.8429,2.0,41.57523151,34.20728139,-99999.0,'11111222,11111222,99999999' 
TABS,ioos:station:wmo:42048:1,2014-05-03T20:00:00Z,27.9396,-96.8429,2.0,44.02127989,35.18369651,-99999.0,'11111222,11111222,99999999' 
TABS,ioos:station:wmo:42048:1,2014-05-03T20:30:00Z,27.9396,-96.8429,2.0,43.53782585,38.23864537,-99999.0,'11111222,11111222,99999999' 
TABS,ioos:station:wmo:42048:1,2014-05-03T21:00:00Z,27.9396,-96.8429,2.0,42.68650428,35.20726203,-99999.0,'11111222,11111222,99999999' 
TABS,ioos:station:wmo:42048:1,2014-05-03T21:30:00Z,27.9396,-96.8429,2.0,43.50781774,34.48315096,-99999.0,'11111222,11111222,99999999' 
TABS,ioos:station:wmo:42048:1,2014-05-03T22:00:00Z,27.9396,-96.8429,2.0,45.7630015,32.39543332,-99999.0,'11111222,11111222,99999999' 
TABS,ioos:station:wmo:42048:1,2014-05-03T22:30:00Z,27.9396,-96.8429,2.0,43.14043884,36.82430312,-99999.0,'11111222,11111222,99999999' 
TABS,ioos:station:wmo:42048:1,2014-05-03T23:00:00Z,27.9396,-96.8429,2.0,52.65595969,27.54694357,-99999.0,'11111222,11111222,99999999' 
TABS,ioos:station:wmo:42048:1,2014-05-03T23:30:00Z,27.9396,-96.8429,2.0,50.31577305,24.80592066,-99999.0,'11111222,11111222,99999999' 
TABS,ioos:station:wmo:42048:1,2014-05-04T00:00:00Z,27.9396,-96.8429,2.0,46.33305109,25.83760244,-99999.0,'11111222,11111222,99999999' 
TABS,ioos:station:wmo:42048:1,2014-05-04T00:30:00Z,27.9396,-96.8429,2.0,46.84671906,26.33218943,-99999.0,'11111222,11111222,99999999' 
TABS,ioos:station:wmo:42048:1,2014-05-04T01:00:00Z,27.9396,-96.8429,2.0,45.69862415,28.42073363,-99999.0,'11111222,11111222,99999999' 
TABS,ioos:station:wmo:42048:1,2014-05-04T01:30:00Z,27.9396,-96.8429,2.0,50.93728912,29.53162711,-99999.0,'11111222,11111222,99999999' 
TABS,ioos:station:wmo:42048:1,2014-05-04T02:00:00Z,27.9396,-96.8429,2.0,52.41338041,30.85441459,-99999.0,'11111222,11111222,99999999' 
TABS,ioos:station:wmo:42048:1,2014-05-04T02:30:00Z,27.9396,-96.8429,2.0,48.39649091,34.97128679,-99999.0,'11111222,11111222,99999999' 
TABS,ioos:station:wmo:42048:1,2014-05-04T03:00:00Z,27.9396,-96.8429,2.0,48.43165281,35.08590743,-99999.0,'11111222,11111222,99999999' 
TABS,ioos:station:wmo:42048:1,2014-05-04T03:30:00Z,27.9396,-96.8429,2.0,50.06018537,37.68007696,-99999.0,'11111222,11111222,99999999' 
TABS,ioos:station:wmo:42048:1,2014-05-04T04:00:00Z,27.9396,-96.8429,2.0,47.40758093,36.0235312,-99999.0,'11111222,11111222,99999999' 
TABS,ioos:station:wmo:42048:1,2014-05-04T04:30:00Z,27.9396,-96.8429,2.0,52.6185111,41.65566108,-99999.0,'11111222,11111222,99999999' 
TABS,ioos:station:wmo:42048:1,2014-05-04T05:00:00Z,27.9396,-96.8429,2.0,47.6196479,40.0711879,-99999.0,'11111222,11111222,99999999' 
TABS,ioos:station:wmo:42048:1,2014-05-04T05:30:00Z,27.9396,-96.8429,2.0,48.61642693,41.70334519,-99999.0,'11111222,11111222,99999999' 
TABS,ioos:station:wmo:42048:1,2014-05-04T06:00:00Z,27.9396,-96.8429,2.0,50.69909179,41.72755684,-99999.0,'11111222,11111222,99999999' 
TABS,ioos:station:wmo:42048:1,2014-05-04T06:30:00Z,27.9396,-96.8429,2.0,49.42592892,43.52493194,-99999.0,'11111222,11111222,99999999' 
TABS,ioos:station:wmo:42048:1,2014-05-04T07:00:00Z,27.9396,-96.8429,2.0,51.1733716,45.5685736,-99999.0,'11111222,11111222,99999999' 
TABS,ioos:station:wmo:42048:1,2014-05-04T07:30:00Z,27.9396,-96.8429,2.0,53.280517,44.9741548,-99999.0,'11111222,11111222,99999999' 
TABS,ioos:station:wmo:42048:1,2014-05-04T08:00:00Z,27.9396,-96.8429,2.0,50.4145969,48.33427873,-99999.0,'11111222,11111222,99999999' 
TABS,ioos:station:wmo:42048:1,2014-05-04T08:30:00Z,27.9396,-96.8429,2.0,49.22180373,51.96485447,-99999.0,'11111222,11111222,99999999' 
TABS,ioos:station:wmo:42048:1,2014-05-04T09:00:00Z,27.9396,-96.8429,2.0,49.43690293,52.19239504,-99999.0,'11111222,11111222,99999999' 
TABS,ioos:station:wmo:42048:1,2014-05-04T09:30:00Z,27.9396,-96.8429,2.0,50.04231434,51.57087647,-99999.0,'11111222,11111222,99999999' 
TABS,ioos:station:wmo:42048:1,2014-05-04T10:00:00Z,27.9396,-96.8429,2.0,49.13531253,53.54008778,-99999.0,'11111222,11111222,99999999' 
TABS,ioos:station:wmo:42048:1,2014-05-04T10:30:00Z,27.9396,-96.8429,2.0,48.55364097,55.44477974,-99999.0,'11111222,11111222,99999999' 
TABS,ioos:station:wmo:42048:1,2014-05-04T11:00:00Z,27.9396,-96.8429,2.0,51.97017148,53.84103454,-99999.0,'11111222,11111222,99999999' 
TABS,ioos:station:wmo:42048:1,2014-05-04T11:30:00Z,27.9396,-96.8429,2.0,50.10266258,53.50668089,-99999.0,'11111222,11111222,99999999' 
TABS,ioos:station:wmo:42048:1,2014-05-04T12:00:00Z,27.9396,-96.8429,2.0,53.52712017,53.69728857,-99999.0,'11111222,11111222,99999999' 
TABS,ioos:station:wmo:42048:1,2014-05-04T12:30:00Z,27.9396,-96.8429,2.0,49.99764867,55.52096001,-99999.0,'11111222,11111222,99999999' 
TABS,ioos:station:wmo:42048:1,2014-05-04T13:00:00Z,27.9396,-96.8429,2.0,52.91940026,58.71239733,-99999.0,'11111222,11111222,99999999' 
TABS,ioos:station:wmo:42048:1,2014-05-04T13:30:00Z,27.9396,-96.8429,2.0,51.69641404,61.30719452,-99999.0,'11111222,11111222,99999999' 
TABS,ioos:station:wmo:42048:1,2014-05-04T14:00:00Z,27.9396,-96.8429,2.0,52.78113326,59.74910878,-99999.0,'11111222,11111222,99999999' 
TABS,ioos:station:wmo:42048:1,2014-05-04T14:30:00Z,27.9396,-96.8429,2.0,52.52033442,59.37736353,-99999.0,'11111222,11111222,99999999' 
TABS,ioos:station:wmo:42048:1,2014-05-04T15:00:00Z,27.9396,-96.8429,2.0,52.95527025,58.96027476,-99999.0,'11111222,11111222,99999999' 
TABS,ioos:station:wmo:42048:1,2014-05-04T15:30:00Z,27.9396,-96.8429,2.0,51.87598374,58.29596641,-99999.0,'11111222,11111222,99999999' 
TABS,ioos:station:wmo:42048:1,2014-05-04T16:00:00Z,27.9396,-96.8429,2.0,55.53279242,57.25032751,-99999.0,'11111222,11111222,99999999' 